Location: Warwick
(41.7000°N, 71.4170°W)
Time: 17:35:20
(UTC-04:00)

ISS - Visible Passes

Search period start: 19 July 2018 00:00
Search period end: 29 July 2018 00:00
Orbit: 402 x 408 km, 51.6° (Epoch: 20 July)

Date Brightness Start Highest point End Pass type
(mag) Time Alt. Az. Time Alt. Az. Time Alt. Az.
19 Jul -1.2 00:07:06 10° WNW 00:09:35 21° NNW 00:12:11 10° NE visible
19 Jul -0.5 01:45:02 10° NNW 01:47:00 15° N 01:48:58 10° NE visible
19 Jul -1.6 03:21:24 10° NW 03:24:18 27° NNE 03:27:12 10° E visible
19 Jul -3.6 21:37:36 10° SSW 21:40:43 44° SE 21:43:52 10° ENE visible
19 Jul -1.7 23:14:25 10° W 23:17:18 28° NNW 23:20:14 10° NE visible
20 Jul -0.6 00:52:39 10° NW 00:54:37 15° N 00:56:34 10° NNE visible
20 Jul -1.1 02:29:27 10° NW 02:32:01 21° NNE 02:34:36 10° ENE visible
20 Jul -3.9 04:05:34 10° NW 04:08:53 89° ENE 04:12:10 10° SE visible
20 Jul -2.6 20:46:07 10° S 20:48:46 23° SE 20:51:26 10° E visible
20 Jul -2.6 22:21:57 10° WSW 22:25:06 43° NNW 22:28:16 10° NE visible
21 Jul -0.7 00:00:04 10° NW 00:02:13 16° N 00:04:23 10° NNE visible
21 Jul -0.8 01:37:26 10° NNW 01:39:40 17° N 01:41:55 10° NE visible
21 Jul -2.9 03:13:31 10° NW 03:16:45 50° NNE 03:19:57 10° ESE visible
21 Jul -2.4 04:50:32 10° W 04:53:01 20° SW 04:55:28 10° S visible
21 Jul -3.7 21:29:40 10° WSW 21:32:56 75° NNW 21:36:13 10° NE visible
21 Jul -0.9 23:07:24 10° WNW 23:09:51 19° NNW 23:12:19 10° NNE visible
22 Jul -0.6 00:45:17 10° NNW 00:47:17 15° N 00:49:17 10° NE visible
22 Jul -2.0 02:21:31 10° NW 02:24:31 31° NNE 02:27:31 10° E visible
22 Jul -3.3 03:57:58 10° WNW 04:01:02 36° SW 04:04:06 10° SSE visible
22 Jul -1.4 22:14:44 10° W 22:17:31 25° NNW 22:20:19 10° NE visible
22 Jul -0.6 23:52:56 10° NW 23:54:51 14° N 23:56:47 10° NE visible
23 Jul -1.0 01:29:32 10° NW 01:30:54 18° NNW 01:30:54 18° NNW visible
23 Jul -2.1 21:22:10 10° W 21:25:14 36° NNW 21:28:19 10° NE visible
23 Jul -0.6 23:00:22 10° NW 23:02:25 15° N 23:04:29 10° NNE visible
24 Jul -0.9 00:37:31 10° NNW 00:39:30 18° N 00:39:30 18° N visible
24 Jul -0.9 22:07:40 10° WNW 22:10:01 18° NNW 22:12:21 10° NNE visible
24 Jul -0.9 23:45:23 10° NNW 23:47:27 15° N 23:48:35 13° NNE visible
25 Jul -1.2 21:14:57 10° WNW 21:17:37 22° NNW 21:20:17 10° NE visible
25 Jul -0.7 22:53:04 10° NW 22:55:00 14° N 22:56:55 10° NE visible
26 Jul -0.8 00:29:30 10° NW 00:30:26 16° NNW 00:30:26 16° NNW visible
26 Jul -0.8 22:00:32 10° NW 22:02:31 15° N 22:04:30 10° NNE visible
26 Jul -1.2 23:37:28 10° NNW 23:39:46 19° N 23:39:46 19° N visible
27 Jul -0.9 21:07:50 10° NW 21:10:03 17° N 21:12:16 10° NNE visible
27 Jul -1.0 22:45:20 10° NNW 22:47:29 16° N 22:49:09 12° NE visible
28 Jul -0.6 00:21:26 10° NW 00:21:46 12° NW 00:21:46 12° NW visible
28 Jul -0.9 21:53:03 10° NNW 21:55:01 15° N 21:56:57 10° NE visible
28 Jul -1.4 23:29:23 10° NW 23:31:11 23° NNW 23:31:11 23° NNW visible
